DELTA 1 DEB, 7074

Orbit data source: Space-Track

DELTA 1 DEB, 7074 is space debris in SSO originally from a launch on Tue, 06 Nov 1973 UTC launched from the Air Force Western Test Range (AFWTR). Debris objects in space refer to the collection of defunct objects orbiting the Earth. Examples of debris include non-operational satellites, rocket bodies, and fragments generated from explosions, collisions, or faulty payload assembly.

Loading next visibility...
Identifier
7074, 1973-086BS
Orbit
SSO
Country
Flag of USUS
Related business
Manufacturer
Unknown
Mission
Spacecraft
Bus & Motor
Unknown
Mass
Unknown
Launch date (UTC)
1973-11-06 (53 years ago)
Launch vehicle
Unknown
Launch site
Air Force Western Test Range (AFWTR)
Object type
Payload
Rocket body
Debris
Shape & HBR
Unknown shape, 0.1 m
Radar Cross Section
Medium (>0.1 m² and <1 m²)

Expand to show TLE details & history
Last TLE update: 11 hours ago

TLE from 11 hours ago
0 DELTA 1 DEB
1 07074U 73086BS  26219.84501851 -.00000043  00000-0  28021-4 0  9999
2 07074 101.9419 334.7026 0176336   9.1717 114.0369 12.72209537448830
Epoch: 2026-08-07T20:16Z
TLE epoch observation values (Epoch: 2026-08-07T20:16:49.599Z)
Latitude
53.32652°
Longitude
-89.45214°
Altitude
1,439.135 km
Speed
7.12 km/s
True Right ascension
11h 24m 28s
True Declination
53° 10' 34"
Sunlit
Object was in daylight at epoch
Visualization orbit readout
Latitude
Unknown
Longitude
Unknown
Altitude
Unknown
Speed
Unknown
Apparent Right ascension
Unknown
Apparent Declination
Unknown
Sunlit
N/A
Visualization observer readout
Local Sidereal Time
21:33:41
Azimuth
Unknown
Elevation
Unknown
Doppler factor
Unknown
Orbital elements
Apogee altitude
1,507.116 km
Perigee altitude
1,233.844 km
Semi-major axis
7,748.617 km
Eccentricity
0.01763
Inclination
101.9419°
RAAN
334.7026°
Arg. of periapsis
9.1717°
True anomaly
115.8656°
Mean anomaly
114.0369°
Eccentric anomaly
114.95292°
Mean motion
3.18205 °/min
Orbital period
113.13 mins
BSTAR
0.000028021
Loading maneuver chart data...
Computing Atmospheric mass density...
Loading historical data...
Loading historical data...
Loading historical data...
Loading historical data...
Loading historical data...
Loading historical data...
Loading historical data...

Documentation

Showing up to 5 results
|